Eau Claire Lakes Weather Center

Moon Phase Calendar



Eau Claire Lakes Water Level
Online Cameras

 


      

Current Conditions in Augusta
5/7/2021 5:29:07 PM

54°F
Feels Like 50
Clouds
Humidity
26%
Pressure
30.06"
Wind
10.4 mph (NNE)
Dew Point
21°F
UV Index
2/10 (Low)
Visibility
6 mi

Hourly Forecast

Date & Time Fri, May 7
5:00 PM
Fri, May 7
6:00 PM
Fri, May 7
7:00 PM
Fri, May 7
8:00 PM
Fri, May 7
9:00 PM
Fri, May 7
10:00 PM
Fri, May 7
11:00 PM
Sat, May 8
12:00 AM
Sat, May 8
1:00 AM
Sat, May 8
2:00 AM
Sat, May 8
3:00 AM
Sat, May 8
4:00 AM
Sat, May 8
5:00 AM
Sat, May 8
6:00 AM
Sat, May 8
7:00 AM
Sat, May 8
8:00 AM
Sat, May 8
9:00 AM
Sat, May 8
10:00 AM
Sat, May 8
11:00 AM
Sat, May 8
12:00 PM
Sat, May 8
1:00 PM
Sat, May 8
2:00 PM
Sat, May 8
3:00 PM
Sat, May 8
4:00 PM
Sat, May 8
5:00 PM
Sat, May 8
6:00 PM
Sat, May 8
7:00 PM
Sat, May 8
8:00 PM
Sat, May 8
9:00 PM
Sat, May 8
10:00 PM
Sat, May 8
11:00 PM
Sun, May 9
12:00 AM
Sun, May 9
1:00 AM
Sun, May 9
2:00 AM
Sun, May 9
3:00 AM
Sun, May 9
4:00 AM
Sun, May 9
5:00 AM
Sun, May 9
6:00 AM
Sun, May 9
7:00 AM
Sun, May 9
8:00 AM
Sun, May 9
9:00 AM
Sun, May 9
10:00 AM
Sun, May 9
11:00 AM
Sun, May 9
12:00 PM
Sun, May 9
1:00 PM
Sun, May 9
2:00 PM
Sun, May 9
3:00 PM
Sun, May 9
4:00 PM
Condition
Clouds

Clouds

Clouds

Clouds

Clouds

Clouds

Clouds

Clouds

Clouds

Clouds

Clouds

Clouds

Clouds

Clouds

Clouds

Clear

Clear

Clear

Clouds

Clouds

Clouds

Clouds

Clouds

Clouds

Clouds

Clouds

Rain

Rain

Clouds

Clouds

Clouds

Clouds

Clouds

Clouds

Clouds

Clouds

Clouds

Clouds

Clouds

Clouds

Clouds

Clouds

Clouds

Clouds

Clouds

Clouds

Rain

Rain
Temperature 54°F53°F52°F48°F43°F39°F37°F35°F34°F34°F33°F32°F32°F32°F36°F42°F46°F49°F51°F53°F54°F54°F54°F53°F51°F49°F45°F43°F42°F41°F41°F40°F40°F38°F38°F37°F37°F36°F38°F41°F45°F48°F51°F53°F55°F53°F53°F53°F
Feels Like 50°F49°F48°F46°F41°F35°F32°F31°F30°F30°F30°F29°F29°F29°F33°F39°F43°F47°F48°F50°F51°F51°F51°F50°F49°F46°F41°F39°F39°F41°F38°F36°F35°F34°F32°F33°F31°F31°F33°F36°F41°F44°F49°F51°F52°F50°F51°F50°F
Cloudiness 75%80%84%82%88%91%70%57%49%66%36%26%21%17%14%4%4%2%18%19%32%100%100%100%100%100%100%100%100%100%100%100%100%100%100%100%100%100%100%100%100%100%100%100%100%100%100%100%
Visibility 6 mi6 mi6 mi6 mi6 mi6 mi6 mi6 mi6 mi6 mi6 mi6 mi6 mi6 mi6 mi6 mi6 mi6 mi6 mi6 mi6 mi6 mi6 mi6 mi6 mi6 mi6 mi6 mi6 mi6 mi6 mi6 mi6 mi6 mi6 mi6 mi6 mi6 mi6 mi6 mi6 mi6 mi6 mi6 mi6 mi6 mi6 mi6 mi
Precipitation 0%0%0%0%0%0%0%0%0%0%0%0%0%0%0%0%0%0%0%0%0%0%0%0%2%7%21%54%54%50%44%36%36%0%0%0%0%0%0%0%0%0%0%0%6%54%80%84%
Humidity 26%30%38%48%57%64%66%65%64%64%65%66%67%66%60%52%48%45%41%39%39%39%40%44%56%63%78%86%91%92%92%93%93%95%95%95%95%96%92%85%77%69%58%51%46%50%55%58%
Dew Point 21°F24°F27°F29°F29°F28°F26°F25°F23°F23°F22°F22°F22°F22°F23°F25°F28°F29°F28°F29°F29°F30°F30°F32°F36°F37°F39°F39°F39°F39°F38°F38°F38°F37°F36°F36°F35°F35°F36°F37°F38°F38°F37°F35°F35°F35°F37°F38°F
Pressure 30.06"30.06"30.06"30.09"30.12"30.12"30.12"30.15"30.15"30.15"30.15"30.15"30.15"30.15"30.15"30.15"30.12"30.09"30.06"30.06"30.03"30.03"30"30"30"30"30.03"30.03"30.03"30.03"30"30"30"29.97"29.94"29.97"29.94"29.94"29.94"29.94"29.94"29.91"29.91"29.88"29.88"29.88"29.91"29.91"
Wind Speed 10.8 mph9.1 mph5.7 mph3.8 mph4 mph4.8 mph5.4 mph5.4 mph4.4 mph3.8 mph3.4 mph3.2 mph3.3 mph3.5 mph3.7 mph4.3 mph5 mph5.8 mph6.4 mph6.5 mph6 mph5.5 mph5.5 mph5.1 mph4.6 mph7.7 mph7.1 mph6.8 mph4 mph1.4 mph4.5 mph5.4 mph5.7 mph5.9 mph6.5 mph5.7 mph6.7 mph5.6 mph5.9 mph7.4 mph8.4 mph8.9 mph9.7 mph8.8 mph8.6 mph8.8 mph8.4 mph9 mph
Wind
Direction
340°
NNW
340°
NNW
343°
NNW

N
46°
NE
83°
E
82°
E
87°
E
94°
E
108°
ESE
111°
ESE
136°
SE
152°
SSE
139°
SE
124°
SE
151°
SSE
151°
SSE
150°
SSE
147°
SSE
145°
SE
139°
SE
143°
SE
139°
SE
143°
SE
153°
SSE
188°
S
211°
SSW
197°
SSW
175°
S
90°
E
66°
ENE
76°
ENE
73°
ENE
53°
NE
44°
NE
54°
NE
52°
NE
39°
NE
40°
NE
52°
NE
60°
ENE
66°
ENE
61°
ENE
56°
NE
59°
ENE
39°
NE
20°
NNE
10°
N

Daily Forecast

Date High Low Precip. Humidity
Today
May 7

Rain
54 °F
33 °F
81%
42%
Saturday
May 8

Rain
54 °F
32 °F
54%
39%
Sunday
May 9

Rain
55 °F
36 °F
100%
46%
Monday
May 10

Clouds
53 °F
29 °F
16%
40%
Tuesday
May 11

Clear
60 °F
34 °F
0%
40%
Wednesday
May 12

Rain
58 °F
43 °F
88%
56%
Thursday
May 13

Rain
59 °F
47 °F
96%
61%
Friday
May 14

Clouds
68 °F
44 °F
21%
48%
Saturday
May 15

Rain
67 °F
55 °F
100%
95%
Sunday
May 16

Rain
64 °F
46 °F
100%
63%
Monday
May 17

Rain
49 °F
43 °F
100%
97%
Tuesday
May 18

Rain
54 °F
42 °F
92%
84%
Wednesday
May 19

Clear
65 °F
39 °F
0%
45%
Thursday
May 20

Clouds
67 °F
43 °F
0%
43%
Friday
May 21

Rain
68 °F
47 °F
43%
51%
Saturday
May 22

Rain
55 °F
44 °F
61%
90%

Temperature 8-14 Day Outlook



Precipitation 8-14 Day Outlook




Quick Links
Eau Claire Lakes News
Eau Claire Lakes Photos
Eau Claire Lakes Videos




About Us
Contact Us
Site Map
Search Site
Advertise With Us
   
EauClaires.LakesOnline.com
THE EAU CLAIRE LAKES WEBSITE

Copyright 2021, Lakes Online
Privacy    |    Legal